User: anonymous   Login
Location: Unspecified
(0.0000°N, 0.0000°E)
Time: 21:58:52
(UTC+00:00)
Language:

ITUPSAT 1 - Orbit

View from above orbital plane
View from above orbital plane
View from above satellite
View from above satellite

Ground track
Ground track

The orbit data is extracted from the following two-line orbital elements,

1 35935U 09051E   17082.92422616 +.00000166 +00000-0 +49366-4 0  9995
2 35935 098.4960 221.4805 0008858 152.8685 207.2976 14.55295575397807
Epoch (UTC): 23 March 2017 22:10:53
Eccentricity: 0.0008858
inclination: 98.4960°
perigee height: 702 km
apogee height: 714 km
right ascension of ascending node: 221.4805°
argument of perigee: 152.8685°
revolutions per day: 14.55295575
mean anomaly at epoch: 207.2976°
orbit number at epoch: 39780

The dashed part of the orbit path shows where the satellite is in the earth's shadow,  

DLR